Disclaimer

Please do not use the information listed here in-flight or in-navigation, as they are not provided to us by the airports but are provided by volunteers, so they might be outdated.

Search


Regions


Airport information page

Radio informations:
Ground (GND) - 236.8 MHz

Airport informations:
Latitude: 24° 47' 02.40" N
Longitude: 141° 19' 21.80" E
Elevation: 384 feet - 117 meters
Operating hours: N/A
Operating agency: Military
Timezone: UTC+9
Fuel: JP-4, Wide cut turbine fuel MIL Spec T-5624

Runway information:
07/25 - 8700 x 200 feet< - >2652 x 61 meters

Recent METARs:
RJAW 192200Z 08007KT 9999 FEW020 BKN035 19/11 Q1020 RMK 1CU020 7CU035 A3012
RJAW 192300Z 11006KT 9999 FEW020 BKN035 20/11 Q1020 RMK 1CU020 7CU035 A3013
RJAW 200000Z 10005KT 070V140 9999 FEW020 BKN035 21/11 Q1021 RMK 1CU020 7CU035 A3015

Airport on the map: